ISS DEB (44306 NORAD) Tracking and Keplerian Element Data

This shows tracking and keplerian element data for the satellite.

Feedback or suggestion? Click here.




ElementValue
Catalog44306
NameISS DEB
Epoch Orbit17355
Epoch Day165.48862041
Epoch Year2022
RAAN260.2045
Inclination51.6113
Eccentricity0.0007588
Argument of Perigee306.8573
Mean Anonmoly53.1759
Mean Motion16.44205263
Decay Rate0.09296357
L11 44306U 98067QD 22165.48862041 .09296357 12591-4 30686-3 0 9995
L22 44306 51.6113 260.2045 0007588 306.8573 53.1759 16.44205263173559



Live tracking and technical data element details for ISS DEB (NORAD 44306). ISS DEB can be tracked NOW for your location showing map with azimuth and elevation plus other details from your city location.







IsCatalogInMostPopularTable: catalog: 44306, numindb: 25920
Update: records affected: 1



GetName: 44306 ISS DEB

Hit Count: updated at: Thu, 19 Jun 2025 10:19:35 GMT